Location: Dana
(41.8364°N, 106.7042°W)
Time: 13:07:41
(UTC+00:00)

ISS - Pass Details

Date: 24 April 2026
Orbit: 414 x 424 km, 51.6° (Epoch: 12 May)

Event Time Altitude Azimuth Distance (km) Brightness Sun altitude
Exits shadow 09:43:14 38° 54° (NE) 657 -2.3 -24.2°
Drops below altitude 10° 09:45:26 10° 55° (NE) 1,501 0.1 -24.0°
Sets 09:47:32 0° 56° (NE) 2,370 1.4 -23.7°
